San Jose, Costa Rica

4:21 AM CST on May 23, 2018 (GMT -0600)
Juan Santamaria International

Weather History for MROC - August, 2013

Change the Weather History Date:

Friday, August 23, 2013

  Actual Average Record
Temperature  
Mean Temperature 72 °F -  
Max Temperature 82 °F 79 °F 87 °F (2014)
Min Temperature 63 °F 63 °F 62 °F (1999)
Cooling Degree Days 8    
Growing Degree Days 22 (Base 50)    
Moisture  
Dew Point 65 °F    
Average Humidity 81    
Maximum Humidity 94    
Minimum Humidity 51    
Precipitation  
Precipitation 0.01 in 0.44 in - ()
Sea Level Pressure  
Sea Level Pressure 29.92 in    
Wind  
Wind Speed 4 mph ()    
Max Wind Speed 9 mph    
Max Gust Speed -    
Visibility 8.0 miles    
Events Rain    
Averages and records for this station are not official NWS values.
T = Trace of Precipitation, MM = Missing Value Source: Averaged Metar Reports

Daily Weather History Graph

Daily Weather History Graph

Search for Another Location

Airport or City:

Astronomy

Aug. 23, 2013 Rise Set
Actual Time 5:27 AM CST 5:50 PM CST
Civil Twilight 5:06 AM CST 6:12 PM CST
Nautical Twilight 4:41 AM CST 6:37 PM CST
Astronomical Twilight 4:16 AM CST 7:02 PM CST
Moon 7:57 PM CST 7:39 AM CST
Length of Visible Light 13h 05m
Length of Day
12h 22m
Waning Gibbous, 91% of the Moon is Illuminated
Aug 23
Waning Gibbous
Aug 28
Last Quarter
Sep 5
New
Sep 12
First Quarter
Sep 19
Full

Hourly Weather History & Observations

Time (CST) Temp. Heat Index Dew Point Humidity Pressure Visibility Wind Dir Wind Speed Gust Speed Precip Events Conditions
12:00 AM 66 °F - 64 °F 92% 29.80 in 12 mi East 3.5 mph - -   Partly Cloudy
12:00 AM 66.2 °F - 62.6 °F 88% 29.93 in - East 3.5 mph - N/A   Clear
1:00 AM 66.2 °F - 64.4 °F 94% 29.90 in - East 4.6 mph - N/A   Clear
2:00 AM 64.4 °F - 62.6 °F 94% 29.89 in - East 4.6 mph - N/A   Clear
3:00 AM 65 °F - 62 °F 86% 29.82 in 12 mi ENE 5.8 mph - -   Partly Cloudy
3:00 AM 64.4 °F - 62.6 °F 94% 29.88 in - ENE 5.8 mph - N/A   Clear
4:00 AM 64.4 °F - 60.8 °F 88% 29.88 in - ENE 5.8 mph - N/A   Clear
5:00 AM 64.4 °F - 60.8 °F 88% 29.89 in - ESE 2.3 mph - N/A   Clear
6:00 AM 65 °F - 62 °F 85% 29.77 in 12 mi East 3.5 mph - -   Scattered Clouds
6:00 AM 64.4 °F - 60.8 °F 88% 29.91 in - East 3.5 mph - N/A   Clear
7:00 AM 66.2 °F - 62.6 °F 88% 29.97 in - East 2.3 mph - N/A   Clear
8:00 AM 71.6 °F - 62.6 °F 73% 29.99 in - Calm Calm - N/A   Clear
8:21 AM 73.4 °F - 64.4 °F 73% 30.00 in - WSW 3.5 mph - N/A   Clear
9:00 AM 74 °F - 64 °F 63% 29.88 in 12 mi SW 4.6 mph - -   Scattered Clouds
9:00 AM 73.4 °F - 64.4 °F 73% 30.01 in 6.2 mi SW 4.6 mph - N/A   Mostly Cloudy
10:00 AM 73.4 °F - 66.2 °F 78% 30.02 in 6.2 mi WSW 6.9 mph - N/A   Mostly Cloudy
11:00 AM 77.0 °F - 64.4 °F 65% 29.99 in 6.2 mi SW 3.5 mph - N/A   Mostly Cloudy
12:00 PM 80 °F - 65 °F 51% 29.79 in 12 mi WNW 2.3 mph - -   Partly Cloudy
12:00 PM 80.6 °F 82.3 °F 64.4 °F 58% 29.95 in 6.2 mi WNW 2.3 mph - N/A   Mostly Cloudy
1:00 PM 78.8 °F - 64.4 °F 61% 29.93 in 6.2 mi WSW 9.2 mph - N/A   Scattered Clouds
2:00 PM 82.4 °F 83.9 °F 64.4 °F 54% 29.91 in 6.2 mi WSW 6.9 mph - N/A   Scattered Clouds
3:00 PM 77 °F - 65 °F 57% 29.76 in 9 mi WSW 8.1 mph - -   Overcast
3:00 PM 77.0 °F - 64.4 °F 65% - 6.2 mi WSW 8.1 mph - N/A   Mostly Cloudy
4:00 PM 73.4 °F - 68.0 °F 83% 29.92 in 6.2 mi WSW 8.1 mph - N/A   Mostly Cloudy
5:00 PM 71.6 °F - 69.8 °F 94% 29.95 in 6.2 mi WSW 5.8 mph - N/A   Mostly Cloudy
6:00 PM 71 °F - 69 °F 90% 29.83 in 9 mi NW 4.6 mph - - Rain Light Rain
6:00 PM 71.6 °F - 68.0 °F 88% 29.97 in 6.2 mi NW 4.6 mph - N/A Rain Light Rain
7:00 PM 68.0 °F - 64.4 °F 88% 29.99 in 6.2 mi NNE 4.6 mph - N/A Rain Light Rain
8:00 PM 68.0 °F - 66.2 °F 94% 30.02 in 6.2 mi South 2.3 mph - N/A Rain Light Rain
9:00 PM 69 °F - 66 °F 86% 29.88 in 12 mi Calm Calm - -   Overcast
9:00 PM 68.0 °F - 66.2 °F 94% 30.04 in 6.2 mi Calm Calm - N/A   Mostly Cloudy
10:00 PM 68.0 °F - 66.2 °F 94% 30.05 in 6.2 mi NNE 2.3 mph - N/A   Mostly Cloudy
11:00 PM 68.0 °F - 66.2 °F 94% 30.05 in - East 3.5 mph - N/A   Clear